Tracking 29034 objects as of 24-Jun-2024
HD Live streaming from Space Station
objects crossing your sky now

WESTFORD NEEDLES

Track WESTFORD NEEDLES now!
10-day predictions
WESTFORD NEEDLES is classified as:


NORAD ID: 2375
Int'l Code: 1963-014W
Perigee: 1,936.1 km
Apogee: 5,220.9 km
Inclination: 86.4 °
Period: 164.6 minutes
Semi major axis: 9949 km
RCS: 0.1605 m2 (medium)
Launch date: May 9, 1963
Source: United States (US)
Launch site: AIR FORCE WESTERN TEST RANGE (AFWTR)
Your satellite tracking list
Your tracking list is empty




NASA's NSSDC Master Catalog

Two Line Element Set (TLE):
1 02375U 63014W   24166.50385346  .00000373  00000-0  40046-1 0  9992
2 02375  86.4126 152.7956 1650748 268.0444  73.1449  8.74784185307358
Source of the keplerian elements: AFSPC